Address 0xa67beb7d5d69ecff44891690d5e175a3def367ae 2

Txn Hash Method
Block
From
To
Value [Txn Fee]
0x28e309fa20f9472fe2801a38f9ca0386606e2739f2c227b93b9d5089aad19105Transfer From149689732022-05-21 2:49:201 min ago0xa67beb7d5d69ecff44891690d5e175a3def367aeOUT 0x4763ace28ee11adeb601c162a96528958ceca9990 AVAX0.003677175 25
0x60f68480ceb4d1a7cb813278e6e8e6e32a7707c50e8bfcfea8df08b8cd901c2fOpen149689412022-05-21 2:48:162 mins ago0xa67beb7d5d69ecff44891690d5e175a3def367aeOUT 0x96376f0176be9691abe9dcdfb9a267524090de5b0 AVAX0.0283271 25
0x06c58c6ff7b8493f12af5134eb8e53fe44b2bb166561e56f3e176893f2f80f34Transfer From149689122022-05-21 2:47:183 mins ago0xa67beb7d5d69ecff44891690d5e175a3def367aeOUT 0xcc0f16368921a08562fda1295b466782f4068a760 AVAX0.003677175 25
0x2c2fb4da2d470a7e6f280d13a3e0f33e072086a7a85e776069932cd67665d75eOpen149688682022-05-21 2:45:464 mins ago0xa67beb7d5d69ecff44891690d5e175a3def367aeOUT 0x1ace04fcf85daabc79b93cf2223bb7e9228761270 AVAX0.01874745 25
0x40b63fb46d0a867c8408287fc79a75f0366aceae8c0ca931aeee04f153d81b8fTransfer From149685642022-05-21 2:35:3414 mins ago0xa67beb7d5d69ecff44891690d5e175a3def367aeOUT 0x1f0249828e4f900daa9b79495fe9f58991c7dfc80 AVAX0.003864525 25
0x2f880ade9ad07a11aacb5ff4cca7edd0e8836f4ebfc186fa707639720f45920cOpen149685282022-05-21 2:34:1716 mins ago0xa67beb7d5d69ecff44891690d5e175a3def367aeOUT 0x96376f0176be9691abe9dcdfb9a267524090de5b0 AVAX0.02816595 25
0x923bf34bbbb19fa529756a2d049eedad2971796f9b06644acada9ed565b33719Transfer From149685192022-05-21 2:33:5916 mins ago0xa67beb7d5d69ecff44891690d5e175a3def367aeOUT 0xd4bc36693baffc989691229675fa980792959daf0 AVAX0.00350605 25
0x05cf0dba4e18e2d982361f307daad905edd796a6af661f900ae5f5b90c7d77edTransfer From149682122022-05-21 2:23:3326 mins ago0xa67beb7d5d69ecff44891690d5e175a3def367aeOUT 0xe71066bd04d34e01bff8e957991b39d6558488bf0 AVAX0.0036762 25
0x3ae5bdae012994552896fd68705521b07622e19c19dc0b5b0e060dd4dc959599Transfer From149681692022-05-21 2:22:0628 mins ago0xa67beb7d5d69ecff44891690d5e175a3def367aeOUT 0x14e1656dd70d5ec7385dc1ab9999ea43e241b5170 AVAX0.0036762 25
0xa16d2e36da7e03d508e86085c4242e9f8049b0f1f6837e66a1a1c7e0b1a5e6e0Transfer From149681432022-05-21 2:21:1429 mins ago0xa67beb7d5d69ecff44891690d5e175a3def367aeOUT 0xf832239623f0aadf2a986326503a4119fa57a0bc0 AVAX0.0036062 25
0x995fab2e40e0758d0d5ca2e274bada2ff298f6092ba68ed00b8e2a0e8c4e06b6Transfer From149681152022-05-21 2:20:1830 mins ago0xa67beb7d5d69ecff44891690d5e175a3def367aeOUT 0x99b38c54990ae188291386337834f956a328587a0 AVAX0.003676875 25
0x2458d3445bf705276fd086df577d3dbcc221a2d63b0d326e4045a464f8cee530Transfer From149680542022-05-21 2:18:1232 mins ago0xa67beb7d5d69ecff44891690d5e175a3def367aeOUT 0xe4df0a19e77cb621ab344e98edbb00653f4c6b7f0 AVAX0.0032487 25
0xb03c7e05f995dac91287da237c688df613c4c21207d75b585a19c7a543cd685aTransfer From149679612022-05-21 2:15:0635 mins ago0xa67beb7d5d69ecff44891690d5e175a3def367aeOUT 0xc8c5241eb197ec4413738a477115d65548bf57100 AVAX0.0036759 25
0x7379b028348f0a24f5e804db6dd077a21d7d1387c6c4f80ed314afdac3784eaeTransfer From149678552022-05-21 2:11:3139 mins ago0xa67beb7d5d69ecff44891690d5e175a3def367aeOUT 0x1bd43cb61f3f33e9fb3c1519ecae5813577db54d0 AVAX0.0036059 25
0x283275d1b482338ea976c27e8c762ad0657c12273c4841f97b966d978daa88f9Transfer From149678252022-05-21 2:10:3040 mins ago0xa67beb7d5d69ecff44891690d5e175a3def367aeOUT 0xc1745a1f9d10fa8be5dfa9e37b380f659aaabf000 AVAX0.0036059 25
0x69639ef79e11679a0658715c9482936926589e0c8a1e41d479a146d7614a4e2aTransfer From149677972022-05-21 2:09:3241 mins ago0xa67beb7d5d69ecff44891690d5e175a3def367aeOUT 0xf998f08d00dba8521279a78d7f63540c5aa3aeb10 AVAX0.0036059 25
0x091753faa271aa9087ab0aa5b573e5adc5aa2e5742e7576459b806e4c65e3a75Transfer From149677122022-05-21 2:06:4243 mins ago0xa67beb7d5d69ecff44891690d5e175a3def367aeOUT 0x86c917419415defd1bb7869d9ec125df6520ddfc0 AVAX0.003676875 25
0xb72f02880bbdcffd6e815a3f924f1830ce798b98d9a54a7411126345cb2838a8Open149674482022-05-21 1:57:5652 mins ago0xa67beb7d5d69ecff44891690d5e175a3def367aeOUT 0x96376f0176be9691abe9dcdfb9a267524090de5b0 AVAX0.027838 25
0xe0c8889039d8c970eef3a86532c1eb573fa1bc77711abdbf9060423ea921f01bTransfer From149673902022-05-21 1:56:0054 mins ago0xa67beb7d5d69ecff44891690d5e175a3def367aeOUT 0x86c917419415defd1bb7869d9ec125df6520ddfc0 AVAX0.003864225 25
0xfe7054e2a30a5d772fd68de79f31c47a99759ad90fe8df9f2c509a1b7dd02be9Transfer From149672762022-05-21 1:52:0958 mins ago0xa67beb7d5d69ecff44891690d5e175a3def367aeOUT 0xa95fb9c641d0183966ea22c6b239f32a4cd3e4320 AVAX0.003676875 25
0xb7af1a536ad0f047246a83c931728f2973f466531236ae341dde83b42dff9c4fTransfer From149672442022-05-21 1:51:0659 mins ago0xa67beb7d5d69ecff44891690d5e175a3def367aeOUT 0xa95fb9c641d0183966ea22c6b239f32a4cd3e4320 AVAX0.003606875 25
0x54817f402c9710d2ab03454a8e00e1804ad9fd3e4e2e437a0c62d28a5a32e513Transfer From149671542022-05-21 1:48:061 hr 2 mins ago0xa67beb7d5d69ecff44891690d5e175a3def367aeOUT 0x12963d1dd0ab0f48aee26dff0cfe10157a835efd0 AVAX0.003606875 25
0xf9e24b6dce7b8988603699bce6d191dce24630dda06eaf4b91eba39dac651474Transfer From149671132022-05-21 1:46:421 hr 3 mins ago0xa67beb7d5d69ecff44891690d5e175a3def367aeOUT 0xe002157b281fb23adec4f781f66526dfcc0b81bc0 AVAX0.003621058855 25.09831125
0x69d9bd28b8f894b10e8d08cfa8abf10d02a551c818a9950070cf582591345de9Open149668982022-05-21 1:39:341 hr 10 mins ago0xa67beb7d5d69ecff44891690d5e175a3def367aeOUT 0x1ace04fcf85daabc79b93cf2223bb7e9228761270 AVAX0.0181048 25
0xd6f8e34f7a80973256f8a22b97236dcd6519338d92e70f1765cf98171d0a09dcTransfer From149668902022-05-21 1:39:181 hr 11 mins ago0xa67beb7d5d69ecff44891690d5e175a3def367aeOUT 0x75868e974ec0832a68aa95e3a7796b2bcf82bb150 AVAX0.003676875 25
[ Download CSV Export 
Parent Txn Hash Block From To Value
Loading

Contract Name:
0

Compiler Version
0

Optimization Enabled:
0

Other Settings:
-NA-
Block Transaction Gas Used Reward
Age Block Fee Address BC Fee Address Voting Power Jailed Incoming
Block Uncle Number Difficulty Gas Used Reward
Loading
Make sure to use the "Vote Down" button for any spammy posts, and the "Vote Up" for interesting conversations.